Location: Gleizolles
(44.4833°N, 6.7667°E)
Time: 16:10:45
(UTC+00:00)

Cosmos 1023 Rocket - Pass Details

Date: 09 April 2020
Orbit: 737 x 772 km, 74.1° (Epoch: 28 May)

Event Time Altitude Azimuth Distance (km) Brightness Sun altitude
Rises 19:20:43 0° 198° (SSW) 3,199 7.6 -12.7°
Reaches altitude 10° 19:23:05 10° 198° (SSW) 2,273 6.9 -13.0°
Maximum altitude 19:28:14 87° 110° (ESE) 756 4.4 -13.9°
Drops below altitude 10° 19:33:23 10° 22° (NNE) 2,266 7.0 -14.7°
Sets 19:35:44 0° 22° (NNE) 3,190 7.8 -15.1°
